Home > Weather > Amadora > Past weeks

Flag for Portugal Weather for the Past 2 Weeks in Amadora, Portugal

Now
59 °F

Drizzle. Partly sunny.


Feels Like: 55 °F
Forecast: N/A
Wind: 21 mph from West

Location: Lisbon Portela Airport

Current Time: Feb 13, 2016 at 4:34:43 PM

Latest Report: Feb 13, 2016 at 4:00 PM


Visibility: N/A

Pressure: 29.95 "Hg

Humidity: 94%

Dew point: 57 °F

Location of AmadoraLocation

Historic Weather in Amadora — Graph

°F

Amadora Temperature Yesterday

Maximum temperature yesterday: 61 °F (at 10:30 AM)
Minimum temperature yesterday: 57 °F (at 12:00 AM)
Average temperature yesterday: 59 °F

High & Low Weather Summary for the Past Weeks

 TemperatureHumidityPressure
High63 °F (Feb 1, 1:30 PM)100% (Feb 10, 6:30 AM)30.66 "Hg (Feb 10, 6:30 AM)
Low45 °F (Feb 5, 6:30 AM)45% (Feb 4, 2:00 PM)29.98 "Hg (Feb 13, 2:00 PM)
Average56 °F81%30.32 "Hg
* Reported Jan 29 3:00 PM — Feb 13 3:30 PM, Amadora, Weather by CustomWeather, © 2016

Note: Actual official high and low records may vary slightly from our data, if they occured in-between our weather recording intervals... More about our weather records

Advertising

Amadora Weather History for the Previous 24 Hours

 ConditionsComfort  
Time TempWeatherWind HumidityBarometerVisibility
3:30 PM
Sat, Feb 13
59 °FDrizzle. Partly sunny.20 mph94%29.98 "Hg2 mi
3:00 PM59 °FDrizzle. Fog.17 mph100%29.98 "Hg1 mi
2:30 PM59 °FDrizzle. Fog.17 mph94%29.98 "Hg1 mi
2:00 PM59 °FDrizzle. Fog.15 mph100%29.98 "Hg1 mi
1:30 PM59 °FDrizzle. Fog.15 mph100%30.01 "Hg1 mi
1:00 PM59 °FDrizzle. Fog.15 mph100%30.01 "Hg1 mi
12:30 PM59 °FDrizzle. Partly sunny.14 mph100%30.01 "Hg4 mi
12:00 PM59 °FDrizzle. Partly sunny.12 mph94%30.04 "Hg4 mi
11:30 AM59 °FDrizzle. Fog.15 mph94%30.04 "Hg3 mi
11:00 AM59 °FDrizzle. Fog.9 mph100%30.04 "Hg1 mi
10:30 AM59 °FDrizzle. Fog.12 mph94%30.04 "Hg1 mi
10:00 AM59 °FDrizzle. Broken clouds.10 mph94%30.04 "Hg3 mi
9:30 AM59 °FDrizzle. Partly sunny.12 mph94%30.04 "Hg5 mi
9:00 AM59 °FScattered showers. Partly sunny.12 mph94%30.04 "Hg6 mi
8:30 AM59 °FLight rain. Partly sunny.10 mph94%30.04 "Hg5 mi
8:00 AM59 °FPartly sunny.10 mph94%30.04 "HgN/A
7:30 AM59 °FBroken clouds.10 mph94%30.04 "Hg6 mi
7:00 AM59 °FPassing clouds.10 mph94%30.04 "Hg5 mi
6:30 AM59 °FPassing clouds.13 mph94%30.01 "Hg5 mi
6:00 AM59 °FPassing clouds.13 mph94%30.01 "Hg4 mi
5:30 AM59 °FPassing clouds.12 mph94%30.01 "Hg3 mi
5:00 AM59 °FPassing clouds.13 mph94%30.04 "Hg4 mi
4:30 AM59 °FDrizzle. Fog.15 mph94%30.04 "Hg3 mi
4:00 AM59 °FPartly cloudy.14 mph94%30.01 "HgN/A
3:30 AM59 °FScattered showers. Passing clouds.15 mph88%30.01 "HgN/A
3:00 AM59 °FPassing clouds.13 mph94%30.01 "HgN/A
2:30 AM59 °FPartly cloudy.15 mph94%30.01 "HgN/A
2:00 AM59 °FPassing clouds.13 mph94%30.04 "HgN/A
1:30 AM59 °FPassing clouds.14 mph94%30.04 "HgN/A
1:00 AM59 °FPartly cloudy.17 mph94%30.04 "Hg5 mi
12:30 AM59 °FPassing clouds.15 mph94%30.04 "Hg5 mi
12:00 AM59 °FPassing clouds.17 mph88%30.04 "HgN/A
11:30 PM
Fri, Feb 12
59 °FPassing clouds.14 mph94%30.04 "Hg5 mi
11:00 PM59 °FPassing clouds.13 mph94%30.07 "Hg4 mi
10:30 PM59 °FPassing clouds.9 mph94%30.07 "Hg4 mi
10:00 PM59 °FPassing clouds.10 mph94%30.07 "Hg3 mi
9:30 PM59 °FPassing clouds.12 mph94%30.07 "Hg3 mi
8:30 PM59 °FPassing clouds.13 mph94%30.04 "Hg3 mi
8:00 PM59 °FPassing clouds.13 mph94%30.04 "Hg3 mi
7:30 PM59 °FPassing clouds.13 mph94%30.07 "Hg2 mi
7:00 PM59 °FPassing clouds.13 mph94%30.07 "Hg3 mi
6:30 PM59 °FPassing clouds.13 mph94%30.07 "Hg4 mi
6:00 PM59 °FScattered showers. Partly sunny.14 mph94%30.07 "HgN/A
5:30 PM59 °FDrizzle. Partly sunny.12 mph100%30.07 "HgN/A
5:00 PM61 °FDrizzle. Fog.15 mph94%30.04 "Hg3 mi
4:30 PM61 °FPartly sunny.16 mph94%30.04 "Hg4 mi
4:00 PM61 °FDrizzle. Partly sunny.16 mph94%30.04 "Hg4 mi
Weather by CustomWeather, © 2016

See weather overviewHow to use our weather pages